Regional Weather Roundup
Issued by NWS

Home | Current Version | Previous Version | Graphics & Text | Print | Product List | Glossary On
Versions: 1 2 3 4 5 6 7 8 9 10 11 12 13 14 15 16 17 18 19 20 21 22 23 24 25 26 27 28 29 30 31 32 33 34 35 36 37 38 39 40 41 42 43 44 45 46 47 48 49 50
000
ASUS45 KBOU 241107
RWRCO

WEATHER ROUNDUP FOR COLORADO
NATIONAL WEATHER SERVICE DENVER/BOULDER CO
400 AM MST MON NOV 24 2014

NOTE: "FAIR" INDICATES FEW OR NO CLOUDS BELOW 12000 FEET WITH NO
SIGNIFICANT WEATHER AND/OR OBSTRUCTIONS TO VISIBILITY.

COZ001>005-013-030-031-241200-
...NORTHWEST COLORADO...

CITY           SKY/WX    TMP DP  RH WIND       PRES   REMARKS
CRAIG          LGT SNOW  23  17  78 W7        30.04F WCI  15
HAYDEN         CLOUDY    19  16  86 N3        30.01F VSB 1
MEEKER         LGT SNOW  20  13  74 CALM      30.06F
MOUNT WERNER   NOT AVBL
STEAMBOAT SPGS CLOUDY    19  17  92 E5        30.00F VSB 1   WCI  12
WALDEN         CLOUDY    19   9  63 SW8       29.90S WCI   9
$$

COZ006>008-011-241200-
...WEST CENTRAL VALLEYS...

CITY           SKY/WX    TMP DP  RH WIND       PRES   REMARKS
GRAND JUNCTION CLOUDY    25  16  68 E3        30.13F
MONTROSE       CLOUDY    22  12  65 SE9       30.15F WCI  12
EAGLE          CLOUDY    23  16  74 SW14      30.07R WCI  11
RIFLE          CLOUDY    20  16  84 CALM      30.11F
DELTA          CLOUDY    25  16  68 E5        30.14F WCI  19
NUCLA          CLOUDY    21  12  68 SE9       30.16F WCI  11
$$

COZ017>023-064>068-241200-
...SOUTHWEST COLORADO...

CITY           SKY/WX    TMP DP  RH WIND       PRES   REMARKS
DURANGO        CLEAR     20   9  62 SW8       30.04F WCI  10
CORTEZ         CLEAR     14  10  84 E7        30.15F WCI   4
PAGOSA SPRINGS CLEAR     13   5  69 CALM      30.03R
TELLURIDE      NOT AVBL
WOLF CREEK PAS PTCLDY     7 -11  43 MISG      29.92S
$$

COZ009-010-012-014-032>034-037-058>063-241200-
...CENTRAL COLORADO...

CITY           SKY/WX    TMP DP  RH WIND       PRES   REMARKS
ASPEN          LGT SNOW  17  14  88 CALM      30.02F FOG
BUENA VISTA    MOCLDY    19   0  42 W12G29    29.95S WCI   7
COPPER MTN     CLOUDY     5   0  78 W20       29.84R WCI -15
BERTHOUD PASS  HVY SNOW   0  -6  78 W44       29.73F VSB 1/4 WCI -30
COTTONWOOD PAS MOCLDY    18  -2  41 W30G46    29.85S WCI  -2
GUNNISON       CLOUDY    10   3  72 CALM      30.08F
KREMMLING      FLURRIES  21  12  68 S7        29.99R WCI  13
LEADVILLE      LGT SNOW   8   2  76 NE7       29.91F WCI  -3
MONARCH PASS   CLOUDY     1  -2  85 MISG      29.95F
SALIDA         MOCLDY    24   2  39 W31G38    30.01F WCI   6
SUNLIGHT         N/A    N/A N/A N/A CALM      29.95S
WILKERSON PASS PTCLDY     7  -6  56 MISG      29.80S
$$

COZ069>075-241200-
...SAN LUIS VALLEY/SANGRE DE CRISTO MOUNTAINS...

CITY           SKY/WX    TMP DP  RH WIND       PRES   REMARKS
ALAMOSA        PTCLDY     5  -2  72 SW5       30.00F WCI  -4
LA VETA PASS   PTCLDY     9   0  66 MISG      29.84F
SAGUACHE       NOT AVBL
$$

COZ035-036-038>040-241200-
...NORTHERN COLORADO FRONT RANGE...

CITY           SKY/WX    TMP DP  RH WIND       PRES   REMARKS
DENVER INTL AP PTCLDY    29   8  41 W14       29.83F WCI  18
DMNS CITY PARK   N/A     31   2  29 E2        29.85S
AURORA         PTCLDY    25   8  47 SW7       29.86F WCI  17
FRONT RANGE AP PTCLDY    32  10  40 W21       29.84F WCI  20
ERIE MUNI ARPT CLEAR     31   3  31 CALM      29.84F
BOULDER MUN AP CLEAR     34   3  27 N5        29.83S WCI  30
CENTENNIAL     MOCLDY    29   3  33 W12       29.85F WCI  19
BROOMFIELD     CLEAR     32   5  32 W22G39    29.84S WCI  19
FORT COLLINS   PTCLDY    34   9  35 NW9G28    29.85S WCI  26
LONGMONT       PTCLDY    32   7  34 N10       29.86R WCI  24
$$

COZ041-046-047-076>085-087-088-241200-
...PIKES PEAK/PALMER DIVIDE AND SOUTHERN FOOTHILLS...

CITY           SKY/WX    TMP DP  RH WIND       PRES   REMARKS
COLO. SPRINGS  PTCLDY    28   3  34 NW15      29.86F WCI  16
A. F. ACADEMY  PTCLDY    26   1  33 W24G37    29.84F WCI  11
ELLICOTT       NOT AVBL
FALCON         NOT AVBL
FORT CARSON    PTCLDY    19   6  56 SE6       29.85F WCI  11
LIMON          PTCLDY    17   7  64 W15       29.84F WCI   2
MONUMENT HILL  CLEAR     14   3  62 W9        29.84F WCI   2
TRINIDAD       CLEAR     18   9  68 W18       29.93S WCI   2
$$

COZ042>045-048>051-090-091-241200-
...NORTHEAST COLORADO...

CITY           SKY/WX    TMP DP  RH WIND       PRES   REMARKS
GREELEY ARPT   PTCLDY    21  12  68 CALM      29.86S
AKRON          CLEAR     20  11  68 W16       29.81F WCI   6
BURLINGTON     CLEAR     23  10  57 W14       29.85S WCI  11
WRAY           CLEAR     29  13  51 W14       29.81S WCI  18
STERLING       CLEAR     32  16  51 NW16G22   29.80F WCI  21
HOLYOKE        CLEAR     32  18  55 W13       29.80R WCI  22
FORT MORGAN    CLEAR     22  12  66 W9        29.85S WCI  12
$$

COZ086-089-092>099-241200-
...SOUTHEAST COLORADO...

CITY           SKY/WX    TMP DP  RH WIND       PRES   REMARKS
PUEBLO         CLEAR     20  13  74 CALM      29.91F
LA JUNTA       CLEAR     25  18  74 W13       29.92S WCI  14
LAMAR          CLEAR     20  19  96 SW8       29.90F WCI  10
SPRINGFIELD      N/A     24  20  84 W12       29.90F WCI  13
$$



USA.gov is the U.S. government's official web portal to all federal, state and local government web resources and services.